Location: Bassano
(45.7667°N, 11.7333°E)
Time: 19:53:30
(UTC+00:00)

MOZ.5/SAFIR/RUBIN 5/SL-8 - Pass Details

Date: 07 June 2020
Orbit: 679 x 705 km, 98.1° (Epoch: 11 July)

Event Time Altitude Azimuth Distance (km) Brightness Sun altitude
Exits shadow 00:29:15 29° 151° (SSE) 1,250 4.7 -19.2°
Maximum altitude 00:31:36 71° 74° (ENE) 722 3.9 -19.1°
Drops below altitude 10° 00:36:15 10° 351° (N) 2,136 7.2 -18.8°
Sets 00:38:31 0° 349° (N) 3,059 8.1 -18.7°
